Find Starlink 3858

NORAD ID: 52553 Int'l Des: 2022-051 Owner: SPXS Country: US Constellation: starlink operational
LEOCIRCULAR

实时位置

正在加载3D地球...

关于 Starlink 3858

正在加载描述...

即将过境

Passes for default location (London). Set your location on the main map for personalized predictions.

高度历史

Loading altitude history...

两行轨道根数

1 52553U 22051W 26124.66668981 .01797327 00000-0 58703-1 0 9995
2 52553 53.2217 236.4220 0001483 93.0382 52.0778 15.28292040 5807
Epoch: May 4, 2026 • Age: 7 hours

当前状态

高度 484.8 km
速度 7.62 km/s
星下点 -21.85°S, 128.55°W
发射日期 May 13, 2022
运行时间 3.9 years
类型 internet

技术详情

分类 Payload
质量 297.00 kg
干质量 275.00 kg
总质量 297.00 kg
长度 0.20 m
直径 2.80 m
跨度 9.00 m
形状 Box + pan
制造商 SPXS
平台类型 Starlink
阶段状态 In Orbit
所有者/国家 SPXS/US

Most Searched